Location: Poughquag
(41.6090°N, 73.6820°W)
Time: 08:35:53
(UTC-04:00)

ISS - Pass Details

Date: 24 May 2019
Orbit: 408 x 418 km, 51.6° (Epoch: 17 June)

Event Time Altitude Azimuth Distance (km) Brightness Sun altitude
Rises 22:48:34 0° 303° (WNW) 2,357 1.1 -21.3°
Reaches altitude 10° 22:51:19 10° 327° (NNW) 1,497 0.2 -21.6°
Maximum altitude 22:53:23 15° 5° (N) 1,221 -0.7 -21.8°
Drops below altitude 10° 22:55:28 10° 43° (NE) 1,500 -0.8 -22.0°
Enters shadow 22:56:33 - 56° (NE) 1,802 -0.5 -22.1°
